GFSGL_sfc_dewp_273.txt.gz
Dewpoint
34 36 36 36 36 37 38 39 39 41 41 43 45 47 49 51 54 54 56 56 55 53 52 52 50 51 49 49 50 50 51 51 40 38 37 33 30 30 30 29 31 31 32
34 36 36 35 36 36 37 38 39 40 41 42 44 46 47 48 50 53 51 51 50 49 48 48 48 47 46 46 47 47 47 47 43 36 34 31 30 30 30 30 27 27 30
34 35 35 35 35 36 36 37 38 39 41 42 43 44 44 45 46 46 46 46 45 45 46 46 47 48 45 44 42 41 42 41 40 35 31 32 31 31 30 30 30 31 28
34 35 35 35 35 35 36 36 37 38 39 40 40 41 42 43 43 44 43 42 41 40 40 41 41 41 40 39 38 38 38 37 35 33 31 31 31 29 31 31 30 30 30
33 35 34 34 34 35 35 36 36 37 37 38 38 39 40 40 41 41 41 40 38 37 35 33 34 33 34 34 34 35 37 36 34 31 30 30 30 29 30 30 30 31 30
33 34 34 34 34 34 35 35 35 36 36 37 37 38 37 37 38 39 39 37 36 35 34 34 34 33 34 34 34 34 35 33 31 31 30 27 27 28 29 30 30 29 30
33 35 34 33 33 34 35 34 35 35 36 35 36 36 36 36 37 37 36 36 35 34 33 32 31 31 32 31 32 31 31 33 33 30 28 28 27 28 29 26 27 29 28
32 32 33 32 34 34 34 34 34 35 35 35 35 35 35 34 35 36 35 35 34 33 32 32 31 31 31 30 29 29 29 30 30 28 29 29 28 28 28 28 28 26 26
32 31 31 33 32 32 33 32 32 34 34 33 34 34 34 33 33 34 33 32 31 30 30 31 31 30 31 32 29 29 29 28 30 31 30 29 29 28 27 29 27 29 26
31 31 31 32 31 32 31 32 32 31 30 31 31 33 32 33 32 32 33 32 30 29 30 30 31 31 31 31 30 29 27 27 27 27 26 25 25 25 26 26 28 28 27
31 31 29 29 29 31 30 30 31 31 31 31 31 31 31 32 32 31 31 32 31 31 31 31 31 31 30 30 30 30 28 28 27 26 26 26 26 25 24 24 24 27 27
29 29 29 28 28 29 30 30 30 31 30 30 31 31 31 31 31 31 30 30 32 32 32 32 31 30 30 30 29 29 29 28 28 27 26 26 25 23 22 22 21 21 22
26 25 27 27 29 30 30 29 30 30 31 30 30 31 31 31 32 31 30 31 30 31 32 32 31 30 30 30 30 29 27 28 28 26 26 25 25 22 20 20 19 19 19
26 26 27 26 28 28 29 30 31 31 31 30 29 30 31 31 31 31 32 31 29 30 31 30 30 29 28 29 28 28 27 28 28 27 27 25 22 20 22 23 22 23 22
27 28 28 28 28 28 28 29 28 30 31 31 31 32 31 30 31 31 32 31 31 31 30 30 29 28 28 27 28 27 27 26 26 27 25 22 21 21 21 19 20 20 22
28 28 28 28 28 28 28 28 29 30 29 30 31 31 31 30 29 29 31 32 31 30 29 28 26 26 25 26 26 27 26 25 26 27 23 23 22 21 21 18 19 19 20
29 29 28 28 28 28 28 28 28 29 29 29 29 29 29 28 28 28 30 31 31 30 28 27 26 25 25 25 26 26 25 25 26 26 24 24 23 21 20 19 17 18 18
28 29 30 29 29 29 29 29 29 30 27 27 29 29 30 30 28 29 30 31 29 29 28 27 26 26 25 25 25 25 25 26 26 25 25 23 22 23 20 20 20 16 18
29 30 30 31 31 30 30 30 29 29 29 30 30 30 30 31 31 30 30 29 28 28 28 28 28 27 26 26 25 24 24 25 25 24 24 23 22 21 20 20 21 18 18
30 30 31 30 31 30 30 29 29 29 28 29 29 29 30 29 29 29 29 29 29 29 29 29 29 29 28 26 26 25 24 23 23 23 24 23 22 21 20 20 20 19 17
31 31 30 30 31 30 30 29 29 29 28 29 29 30 30 28 28 29 29 29 29 29 29 29 30 30 30 27 26 25 24 23 22 22 23 24 22 21 20 20 19 20 17
32 31 30 29 30 30 30 30 30 29 29 28 29 30 30 28 28 29 30 30 30 30 30 30 30 30 30 30 28 26 25 23 24 23 23 23 23 22 21 20 20 19 19
31 31 31 30 30 30 30 30 29 29 29 29 29 29 29 28 28 27 28 30 30 31 31 31 30 30 31 30 30 28 26 24 24 24 22 23 23 22 21 20 20 19 19
30 30 30 30 30 29 29 29 29 28 29 29 29 29 29 29 28 28 28 28 29 29 30 30 31 30 30 30 29 29 28 27 27 26 24 23 22 22 21 20 20 19 19
29 29 29 29 29 28 28 28 29 29 29 28 28 29 29 29 29 28 28 29 28 28 28 28 29 29 29 30 30 29 28 27 28 28 26 24 23 22 21 21 20 20 19
28 28 29 28 28 28 28 28 28 28 28 28 29 29 29 28 29 29 29 29 29 29 28 28 29 29 29 30 30 30 28 27 26 26 26 24 23 22 21 20 20 19 19

GFSGL_sfc_dewp_276.txt.gz
Dewpoint
35 36 36 36 37 38 38 39 39 41 42 44 45 47 48 50 53 55 56 56 55 53 53 53 51 51 50 50 50 51 51 47 40 37 36 34 32 32 30 29 31 31 31
35 36 36 36 36 37 37 38 39 40 42 43 44 46 47 47 50 53 51 51 51 49 48 48 48 48 47 47 48 48 47 46 42 36 32 32 32 31 30 30 29 28 29
35 36 36 36 36 36 36 37 38 40 41 42 42 43 44 45 46 47 47 46 45 45 46 46 46 47 45 44 44 43 43 42 40 36 32 33 32 30 29 29 29 30 31
35 35 36 35 35 36 36 37 38 39 39 40 41 41 42 43 43 44 43 42 41 40 39 39 39 40 40 39 39 40 39 38 36 33 31 30 29 28 29 28 27 28 28
35 34 34 35 35 35 36 36 37 37 38 39 39 39 40 40 41 41 40 40 38 36 34 33 34 33 35 36 35 37 37 35 32 30 29 28 27 26 26 26 26 24 24
33 34 34 35 35 35 35 35 36 36 37 37 38 37 37 38 39 39 39 38 36 35 34 34 33 32 34 35 35 36 35 32 29 29 28 26 26 27 27 25 23 25 24
33 32 32 31 32 34 35 34 35 35 36 36 36 36 36 37 38 38 37 36 35 34 32 31 30 30 30 30 32 32 32 34 34 29 26 25 26 27 26 22 23 23 23
32 33 33 32 30 31 33 34 34 35 34 35 35 35 35 35 37 36 35 34 33 32 31 31 30 29 29 29 29 29 29 30 30 28 28 27 28 28 27 27 27 22 20
30 30 30 29 30 30 30 30 30 31 32 32 33 33 33 33 34 34 33 31 30 29 30 30 29 29 32 31 28 27 27 28 31 31 31 31 30 29 28 26 20 18 15
29 29 29 29 29 29 29 29 30 29 30 30 31 31 31 31 33 34 32 30 29 29 29 30 30 30 32 31 27 25 22 25 24 23 25 26 26 27 27 27 26 27 13
28 29 28 28 28 28 28 29 29 29 29 27 28 28 29 29 30 32 33 30 29 29 29 29 29 31 31 31 30 26 25 26 26 22 21 22 22 21 21 23 24 24 17
25 25 24 24 27 28 24 25 25 26 25 25 26 26 27 28 31 31 31 32 32 29 29 28 29 31 30 30 28 30 30 26 21 18 15 15 15 13 13 14 17 18 18
21 20 20 21 24 26 23 22 23 23 23 24 26 26 27 27 28 32 32 32 33 29 29 30 31 31 30 30 30 30 23 20 16 13 13 15 13 12 10 10 13 12 11
22 21 21 21 21 21 26 27 23 21 22 24 24 23 23 24 25 25 28 27 30 29 31 30 30 29 29 27 26 27 22 22 19 15 14 12 11 10 11 10 20 24 10
22 22 23 24 23 22 24 24 26 25 26 21 21 23 23 23 26 29 29 26 23 27 21 18 19 26 27 27 27 27 26 27 26 22 13 11 9 9 10 10 10 10 12
23 24 25 25 25 25 24 22 28 30 31 33 33 28 24 29 32 33 32 31 31 31 18 19 23 25 26 26 26 27 27 25 25 21 21 17 16 18 14 9 10 10 10
25 25 26 25 25 25 24 23 23 24 31 30 30 31 31 28 31 31 32 32 31 31 14 19 19 23 24 25 26 26 26 26 26 25 26 21 19 15 15 8 8 10 10
25 24 27 26 26 26 25 25 24 24 23 21 28 29 30 30 30 29 30 30 29 30 27 22 25 20 18 20 22 24 25 21 25 25 25 21 20 18 13 16 16 12 12
25 26 28 27 27 27 26 25 26 25 25 24 19 27 29 30 31 30 30 28 27 27 27 27 26 25 23 22 22 22 22 23 24 24 25 23 21 21 20 19 19 17 14
25 23 25 28 27 27 27 27 27 27 26 26 26 26 23 25 28 29 28 28 28 26 26 26 25 25 25 23 23 23 22 22 24 24 23 23 21 21 20 19 19 17 18
29 28 27 26 26 28 28 27 27 27 27 27 27 26 28 27 26 27 27 28 28 27 27 27 26 26 26 25 24 23 23 22 23 24 23 23 22 21 20 19 19 19 18
29 30 29 28 29 29 29 29 28 28 28 28 27 26 32 29 26 26 27 28 29 28 28 28 28 28 28 27 26 24 24 23 23 23 23 24 24 22 21 20 20 19 19
30 29 29 28 28 27 28 29 29 28 28 28 26 26 27 29 28 27 27 27 28 29 29 28 28 28 28 28 28 27 25 24 24 24 23 23 23 24 23 21 20 20 19
29 29 29 29 28 28 27 27 28 27 27 26 26 26 26 26 26 25 26 25 23 23 23 26 29 30 30 28 30 29 28 26 25 24 23 24 23 23 24 22 21 21 20
28 29 29 29 28 28 27 27 26 26 26 25 24 23 26 27 26 26 24 24 24 22 22 20 22 27 30 30 30 31 29 25 25 25 26 26 25 24 23 22 22 22 21
27 27 28 27 27 27 27 26 27 26 27 28 28 28 28 28 28 28 29 28 28 29 29 28 28 28 29 29 30 30 31 29 28 28 28 27 26 25 24 23 23 22 22

GFSGL_sfc_dewp_279.txt.gz
Dewpoint
35 36 36 36 37 38 38 38 40 41 42 44 45 47 48 49 52 55 56 56 55 54 54 54 51 51 50 50 51 52 52 47 39 36 35 34 34 32 30 30 31 31 33
35 36 36 36 36 37 37 38 39 40 42 43 44 46 47 47 50 52 52 52 51 50 50 49 48 48 48 48 49 49 48 45 41 34 32 32 33 31 30 30 29 29 32
35 36 36 36 36 36 37 37 39 40 41 42 43 43 45 46 47 48 48 47 46 46 47 47 47 47 46 46 45 45 44 42 39 35 32 33 32 30 28 28 29 30 32
35 35 35 36 36 36 36 37 38 39 39 40 41 42 43 43 44 44 44 42 41 40 39 39 39 42 42 41 41 41 40 38 36 33 31 30 29 28 28 27 27 28 29
34 33 35 36 36 36 36 37 37 38 38 39 40 40 40 41 42 42 41 39 37 35 34 34 35 34 35 36 38 38 38 36 34 31 28 28 27 27 26 27 25 22 24
33 33 34 36 35 35 36 36 36 36 37 38 38 38 38 40 40 40 39 37 36 34 33 33 32 33 35 36 36 37 36 33 30 29 27 25 26 27 26 25 22 28 27
32 32 31 30 34 35 35 35 35 36 36 36 36 36 36 37 39 38 37 37 35 33 31 30 29 29 30 30 32 32 32 35 32 28 26 26 26 27 26 21 21 26 23
32 32 32 31 32 33 33 34 34 35 35 35 35 35 35 35 37 36 35 33 32 31 30 30 29 29 29 28 28 29 29 29 29 27 27 27 27 27 27 26 26 21 19
30 30 30 30 30 30 30 30 30 31 33 33 34 34 32 33 35 35 33 31 29 29 30 29 28 29 32 30 28 28 27 29 32 32 31 31 31 31 29 26 16 21 14
29 29 29 29 30 29 29 29 29 29 30 30 31 30 30 31 34 34 31 29 29 29 29 29 29 30 32 30 26 25 22 24 23 23 25 27 28 29 29 26 25 19 11
28 28 27 28 29 29 28 28 28 29 28 27 28 28 28 29 31 34 32 29 29 29 29 28 29 32 32 30 27 25 24 25 25 21 20 20 20 20 20 22 25 23 22
26 25 24 23 27 28 24 24 25 26 24 23 24 25 26 27 30 33 34 31 31 28 28 28 28 31 31 31 28 30 29 25 20 17 15 13 12 11 11 13 15 16 16
22 23 21 22 24 25 23 21 22 22 23 23 24 24 25 26 27 32 32 34 33 28 28 29 31 31 31 30 31 31 24 21 18 12 13 15 14 13 8 9 9 8 9
21 20 21 22 21 20 25 26 23 20 21 23 23 24 22 23 24 24 27 27 30 29 30 28 30 28 29 27 27 27 20 16 15 14 12 11 11 8 9 10 16 15 17
21 20 22 22 23 23 24 25 26 25 25 22 23 22 20 21 24 28 27 23 21 26 19 17 17 17 22 18 23 23 16 17 17 15 11 11 10 10 10 7 11 22 10
22 22 22 23 22 23 23 22 28 29 29 32 31 26 24 28 31 32 32 31 30 31 14 10 11 12 24 25 25 25 26 25 25 25 25 13 10 13 11 8 8 10 19
24 23 23 23 23 23 22 23 23 23 30 31 32 33 34 29 32 33 33 32 31 30 21 9 13 18 25 25 25 26 26 26 26 25 24 24 16 8 12 11 10 10 10
24 22 24 24 24 23 24 23 22 20 22 23 29 31 32 33 31 32 32 32 30 30 29 26 22 21 17 21 23 23 24 23 25 25 25 25 22 16 10 13 15 16 15
26 25 24 24 24 24 23 22 23 23 24 23 15 23 29 31 31 31 31 28 27 28 28 28 27 22 20 20 19 16 15 19 23 24 24 25 23 21 20 20 18 17 13
27 25 24 25 22 22 23 24 25 25 24 24 22 24 15 22 28 29 29 28 27 26 26 27 27 26 23 21 20 19 18 18 20 21 22 22 23 21 20 19 19 19 17
29 28 28 27 27 28 28 27 27 26 26 27 27 25 26 26 26 27 27 28 27 27 27 26 26 25 25 23 22 21 21 21 21 22 22 22 21 19 20 21 20 20 20
31 31 30 29 29 29 29 29 28 27 27 28 28 25 30 28 27 26 27 28 28 28 28 28 27 27 27 25 24 23 23 22 22 21 22 22 22 21 20 20 20 20 20
31 31 31 30 30 29 29 30 29 29 28 28 28 26 25 29 29 28 27 28 28 29 29 28 28 28 28 28 27 26 25 24 24 23 22 21 21 21 21 21 20 19 19
30 30 30 31 30 30 29 29 29 29 28 27 27 27 26 27 27 26 27 25 25 26 26 28 28 28 29 28 29 29 28 28 25 24 23 22 21 21 22 21 21 20 21
28 29 29 29 30 29 29 29 28 27 26 25 26 25 24 26 27 27 27 27 27 26 26 26 27 28 30 31 31 31 32 30 28 27 26 26 24 24 24 24 24 23 22
26 26 27 27 27 27 27 26 26 27 27 27 27 27 27 27 27 28 28 28 27 28 28 28 28 28 28 29 30 30 30 30 29 28 28 27 26 26 25 24 24 23 23

GFSGL_sfc_dewp_285.txt.gz
Dewpoint
35 37 37 36 37 37 37 38 39 41 43 44 45 47 48 51 54 56 57 56 55 55 55 54 53 53 52 52 53 53 52 46 37 35 35 35 33 32 31 32 33 35 38
35 37 37 37 37 37 38 38 40 40 42 44 45 46 47 49 52 55 54 54 54 52 51 51 50 50 50 50 50 50 47 44 39 33 33 33 32 31 30 31 31 33 35
34 36 37 37 37 37 37 38 38 40 42 43 44 45 46 47 48 50 50 49 50 50 50 49 48 49 47 47 47 46 43 40 38 34 32 33 32 31 30 29 30 30 33
33 36 36 36 36 37 37 38 38 40 41 42 42 43 44 45 46 46 46 44 44 43 43 44 45 46 46 46 44 43 40 38 36 34 32 31 30 30 29 28 25 26 30
32 35 35 37 37 37 37 38 38 39 39 40 41 42 42 43 43 44 43 42 41 39 38 37 37 35 37 41 42 41 40 37 35 33 31 29 28 26 26 26 24 29 30
31 32 34 36 36 36 36 37 37 38 38 38 39 40 40 40 40 40 40 39 38 37 35 34 34 34 37 38 39 40 39 37 34 33 31 29 26 26 26 25 30 31 30
32 31 33 34 34 35 36 36 36 36 37 37 37 38 38 38 39 38 37 36 35 32 31 31 30 30 31 32 34 34 33 36 35 33 30 27 26 26 26 27 28 30 29
31 31 31 33 33 34 34 34 35 35 35 36 36 36 36 36 37 37 35 34 32 30 29 28 28 28 29 29 29 29 29 29 29 29 30 28 26 27 28 29 31 22 17
30 30 30 30 31 31 32 32 32 34 34 34 34 34 34 35 36 35 33 32 30 29 29 28 28 27 31 30 27 28 27 28 32 31 28 30 30 30 30 28 21 21 20
29 30 30 30 30 30 30 29 30 32 32 32 32 32 32 32 35 34 32 30 30 29 28 28 29 29 32 30 26 25 21 25 23 23 26 29 30 31 32 29 27 26 12
28 28 28 28 29 29 29 28 28 29 29 27 27 28 30 30 32 34 32 29 29 28 28 27 28 33 31 30 27 25 24 24 24 18 18 19 20 20 20 22 25 23 11
25 24 22 22 27 28 24 24 24 25 24 22 23 24 25 26 29 32 33 31 30 27 26 26 27 32 31 30 27 26 29 23 16 12 11 11 11 10 10 11 14 14 15
21 21 19 19 22 24 23 21 22 21 22 22 23 23 23 24 25 32 32 33 33 27 26 28 31 31 32 30 29 29 21 16 10 7 6 8 7 5 8 11 6 6 14
22 21 19 20 20 18 24 24 22 20 20 22 22 22 21 22 23 23 26 27 31 28 29 28 30 29 29 26 26 27 18 14 10 8 7 8 14 13 11 17 17 19 17
19 19 21 21 21 21 22 22 24 22 24 21 21 21 19 21 23 27 27 24 23 26 22 23 22 24 25 21 26 23 24 19 20 20 16 18 16 11 5 16 10 17 16
22 21 23 24 21 20 19 20 26 28 28 30 30 24 20 27 29 30 32 31 31 31 26 27 25 25 24 24 25 25 25 24 24 22 22 21 18 8 12 15 17 20 19
23 23 22 22 22 21 19 21 21 22 29 31 31 31 33 32 30 31 32 33 32 31 26 26 26 26 25 24 19 20 23 22 23 22 25 24 23 15 10 14 18 18 19
24 23 24 24 24 23 23 22 22 22 22 21 24 30 32 33 33 33 33 33 30 31 29 27 25 24 19 19 20 20 18 19 25 25 24 25 24 22 19 17 16 17 18
28 27 26 24 24 23 22 21 21 20 21 21 17 22 21 30 33 33 33 30 30 29 29 29 28 25 20 19 21 21 21 21 23 25 26 25 25 24 22 20 18 17 17
29 28 27 26 24 23 24 25 24 24 23 23 21 19 14 16 20 27 30 31 30 30 28 27 27 25 24 22 20 21 19 20 21 23 25 26 25 25 24 23 20 18 17
27 27 26 26 26 25 26 26 27 28 28 29 29 29 28 20 23 26 28 29 30 30 29 28 27 27 27 24 21 18 19 20 21 22 23 24 25 24 25 24 21 20 20
31 29 28 28 29 29 31 31 31 30 30 29 29 29 31 29 26 27 27 28 28 29 30 29 28 28 28 26 25 23 22 22 22 22 22 22 22 22 23 23 21 21 20
31 31 31 30 31 31 31 31 31 30 30 30 29 29 29 28 28 29 28 28 29 29 29 29 29 29 28 28 28 26 25 24 24 25 23 23 23 23 23 22 21 21 20
28 27 29 31 31 31 30 30 29 29 29 28 28 28 27 27 28 28 28 28 27 27 28 28 29 29 29 29 29 29 29 29 29 27 26 25 24 24 23 23 22 21 21
27 27 27 28 27 27 27 26 25 24 23 22 20 20 19 18 17 18 19 20 22 23 24 25 25 26 27 28 28 29 30 30 29 29 28 26 25 25 24 23 23 22 22
18 18 18 18 17 17 17 16 16 15 14 14 15 15 15 14 14 15 15 16 17 18 18 19 19 20 20 21 22 23 25 26 28 29 29 28 26 25 25 24 24 23 23

GFSGL_sfc_dewp_288.txt.gz
Dewpoint
35 37 37 37 37 38 38 38 39 41 43 44 45 47 49 52 56 57 56 56 55 55 55 54 53 54 53 53 53 53 51 46 38 35 35 35 33 33 32 34 35 36 38
36 37 36 37 37 37 38 39 40 40 43 44 45 46 48 50 54 55 54 55 54 54 53 52 51 51 51 51 51 50 47 43 39 33 33 33 33 31 31 32 33 33 35
36 37 37 37 37 37 38 38 39 40 42 43 43 45 46 48 50 51 51 51 51 51 51 51 50 49 48 48 48 46 43 40 38 34 32 33 32 31 30 31 30 30 33
35 35 37 37 37 37 38 38 39 40 40 41 42 43 45 45 47 48 47 47 46 46 46 46 46 47 46 46 45 43 41 38 36 34 32 31 30 30 31 29 26 26 32
33 34 36 37 37 37 38 38 39 39 40 40 41 42 42 42 43 45 44 43 43 41 39 38 37 36 38 43 43 41 39 36 34 33 31 29 29 28 27 26 25 26 31
31 32 35 36 36 37 37 37 38 38 38 39 39 39 39 39 39 40 41 41 39 38 36 34 35 35 37 39 40 40 39 37 34 33 32 30 28 28 26 26 30 28 28
32 31 32 34 33 35 36 36 36 37 37 37 38 38 37 37 38 38 36 36 35 33 33 32 30 30 32 33 35 35 34 36 37 35 33 31 28 27 27 29 23 24 24
31 31 31 31 32 32 32 35 36 36 36 36 36 36 36 36 37 36 35 33 32 30 29 29 29 28 30 30 30 30 29 30 30 31 32 32 28 27 28 30 28 21 18
30 30 31 31 31 31 32 31 32 33 33 34 34 34 35 35 36 36 34 33 31 30 29 28 27 27 31 31 27 27 26 28 31 32 29 31 31 31 31 29 22 26 25
30 30 30 30 30 30 30 30 30 31 32 32 32 32 32 33 35 34 32 31 30 29 28 28 30 29 32 29 26 25 21 24 22 22 25 29 31 31 33 29 27 25 25
28 28 27 28 29 29 28 28 29 29 29 26 27 28 29 31 32 34 33 30 30 28 27 27 28 32 32 30 28 25 24 24 24 19 19 19 20 21 19 22 26 24 13
25 25 22 22 27 27 24 24 24 24 23 22 23 24 24 25 30 33 34 31 31 28 26 26 27 33 32 31 27 27 29 24 18 14 11 11 12 11 10 10 12 14 15
21 22 19 18 22 24 24 21 22 21 22 21 22 22 23 24 24 30 32 33 33 26 26 27 30 33 32 29 27 29 22 17 12 8 9 10 9 6 7 13 7 6 17
20 19 19 20 19 18 22 23 22 20 19 21 21 21 20 21 22 22 25 26 29 27 28 27 29 29 30 27 24 26 18 13 11 8 6 5 9 9 15 19 18 20 19
19 20 22 22 20 20 21 22 23 22 23 19 18 20 18 19 22 27 26 23 23 27 25 27 27 26 26 25 21 24 23 19 18 17 15 16 16 13 4 16 14 18 17
22 22 24 24 21 21 21 20 26 28 28 29 30 25 21 27 29 31 31 32 31 31 24 16 22 26 25 25 25 26 26 25 24 23 21 21 19 11 5 13 17 10 11
25 25 24 24 24 22 20 20 21 23 27 30 31 31 32 32 31 31 31 32 33 32 27 26 26 26 25 25 18 19 19 21 22 22 23 24 23 19 12 12 15 16 17
26 25 24 24 25 24 24 22 21 23 22 21 23 29 31 33 33 33 33 31 28 30 30 28 26 26 25 24 19 17 20 18 20 23 24 25 24 24 19 17 16 16 17
26 27 26 26 25 25 23 22 22 22 22 23 22 24 23 26 28 32 33 27 24 26 26 29 28 28 25 18 19 19 22 22 22 23 24 25 25 24 23 22 19 17 17
28 27 27 27 25 25 24 24 23 24 25 26 27 27 25 26 27 28 29 26 30 30 27 29 28 28 25 22 19 20 20 19 20 22 24 25 26 25 24 24 23 20 18
31 29 28 27 26 25 24 25 26 27 28 30 31 31 32 28 28 27 28 29 30 31 31 31 30 29 29 28 23 17 16 20 21 22 22 23 25 25 25 25 24 23 20
28 30 29 29 28 27 27 28 29 30 31 30 30 29 31 29 29 28 28 29 29 30 31 30 30 29 29 29 27 24 23 22 22 22 22 22 23 24 24 24 24 24 21
27 30 31 31 31 31 31 31 31 30 29 29 29 28 28 28 27 27 27 28 28 29 29 29 29 29 30 29 29 28 26 26 26 25 24 24 23 23 23 22 23 22 21
28 29 30 30 31 30 30 29 27 26 25 23 22 20 19 19 18 18 19 20 20 21 20 20 21 20 21 24 26 28 29 29 29 28 27 26 25 24 24 23 23 23 22
24 24 23 23 23 22 20 18 18 17 17 16 16 16 15 15 15 15 16 16 17 17 18 18 18 18 18 19 20 21 23 24 25 26 28 28 26 25 25 24 24 23 22
16 16 17 17 16 16 15 14 13 13 13 13 12 12 12 12 13 13 13 13 14 15 16 17 17 17 17 18 20 22 23 24 25 25 24 24 24 25 25 25 24 24 23

GFSGL_sfc_dewp_291.txt.gz
Dewpoint
36 37 37 37 38 38 38 39 39 41 43 44 46 48 50 56 57 56 56 56 55 55 55 54 54 54 54 53 53 54 51 47 38 35 36 36 34 33 34 36 38 38 41
36 36 37 37 38 38 38 39 40 41 43 44 45 47 49 55 56 56 55 55 55 54 54 53 53 52 52 52 53 51 48 44 40 34 34 33 33 33 33 35 35 35 38
35 36 37 37 37 38 38 39 40 41 42 43 44 45 47 50 52 53 54 53 53 52 52 52 51 51 49 50 49 47 44 40 38 35 33 33 32 32 33 32 33 34 35
35 36 37 37 37 38 38 39 40 40 41 42 42 43 44 46 47 49 49 48 46 45 45 46 47 49 48 48 46 44 41 39 37 35 34 31 31 31 33 33 32 33 35
33 35 37 37 37 38 38 39 39 40 40 41 41 41 41 42 44 45 44 44 43 41 39 38 39 37 39 43 44 42 40 38 37 35 32 31 30 29 30 31 32 33 34
32 33 36 37 37 37 38 38 39 39 39 39 39 39 39 40 40 41 42 41 39 38 36 36 37 37 38 39 40 40 40 38 36 35 33 31 29 29 30 31 31 33 33
33 33 34 35 35 37 37 38 38 38 38 38 38 38 38 37 38 38 38 38 36 35 34 33 31 33 35 36 37 37 35 37 38 37 35 33 30 30 30 31 31 32 31
32 33 33 34 34 35 35 37 37 37 37 37 37 37 37 36 37 36 34 33 32 31 31 31 30 30 32 33 33 33 32 33 32 32 35 35 33 30 31 32 32 31 30
32 32 32 33 33 34 34 34 34 35 35 35 35 36 36 36 36 36 34 32 30 29 29 29 29 30 31 32 30 29 29 29 31 33 30 32 33 32 32 31 31 32 30
31 31 31 32 32 32 32 32 32 33 33 33 32 32 32 33 35 35 34 33 31 30 28 29 29 30 32 31 28 28 28 28 27 28 28 31 33 32 33 31 31 32 31
29 29 29 30 30 31 30 29 30 31 30 30 30 29 31 30 33 35 34 31 31 29 28 28 30 32 32 30 27 27 27 27 28 26 26 27 28 30 29 29 30 30 29
26 26 24 23 29 28 27 25 25 27 27 26 27 28 28 28 31 33 35 33 31 30 28 28 28 33 32 31 28 27 29 25 24 25 25 26 26 27 24 24 24 25 23
24 22 20 20 23 24 26 25 26 24 27 25 26 26 26 26 27 30 31 33 32 28 27 28 30 33 32 30 28 31 23 23 22 23 22 21 19 17 16 19 18 17 21
24 23 21 22 21 20 24 25 26 25 25 25 26 26 25 25 26 26 28 29 30 29 29 28 31 30 30 28 28 26 23 22 22 21 20 17 16 18 21 22 23 24 24
24 24 24 24 23 22 23 24 25 24 26 26 26 26 26 25 26 28 28 28 29 29 27 28 29 28 27 27 27 26 24 21 22 20 19 20 19 18 17 19 19 21 22
25 24 25 25 23 23 23 22 26 28 28 30 29 26 25 27 29 30 31 31 31 30 27 24 26 27 27 26 26 27 28 27 25 24 24 22 21 19 17 17 19 19 20
28 27 26 26 25 24 23 23 25 25 28 30 31 31 32 32 31 31 31 32 33 31 28 27 27 27 27 27 26 25 24 25 25 25 25 24 23 23 19 18 19 19 19
23 25 26 26 27 26 26 26 25 25 24 24 24 27 29 30 32 33 33 32 31 32 31 29 28 28 27 27 26 24 22 23 23 25 24 24 25 26 22 21 19 19 19
24 25 25 25 25 25 25 25 24 22 23 24 24 27 25 27 29 31 33 32 31 30 30 30 31 29 29 28 25 23 22 23 24 25 26 26 26 26 25 25 22 19 19
25 25 25 26 26 24 23 23 23 24 25 26 28 30 30 31 30 29 31 31 31 31 31 31 31 31 31 29 28 25 24 24 24 24 25 26 26 27 26 25 25 23 21
27 26 26 27 26 25 26 26 26 25 26 30 31 32 33 30 29 29 29 29 30 30 31 31 31 31 30 30 29 27 25 24 24 24 24 24 25 25 27 26 26 26 24
23 27 28 29 28 27 27 28 29 30 31 30 29 29 31 29 28 27 26 27 28 28 28 28 28 28 29 29 29 28 27 26 26 25 24 24 24 25 25 26 26 25 25
26 28 28 28 30 31 31 31 31 29 27 25 24 22 21 19 19 19 19 20 20 20 21 21 20 20 21 22 22 23 23 24 26 28 27 26 25 25 25 24 24 24 24
26 29 30 31 30 28 26 22 20 20 19 18 17 17 16 16 16 16 17 18 18 18 19 19 19 18 19 20 21 22 23 24 24 24 24 24 26 26 25 25 24 24 24
24 23 23 23 21 20 19 17 16 15 15 15 14 14 14 14 14 14 15 16 16 16 17 18 19 19 19 19 19 20 20 18 18 19 21 21 20 21 21 23 24 25 24
17 17 17 16 15 15 14 13 12 12 12 12 12 11 11 11 12 12 13 13 14 15 15 16 18 17 17 18 19 17 17 18 15 15 16 16 15 15 16 17 18 20 20